Location: Altoona
(40.5167°N, 78.4000°W)
Time: 20:02:00
(UTC-04:00)

Daily predictions for brighter satellites

Satellite Brightness Start Highest point End
(mag) Time Altitude Azimuth Time Altitude Azimuth Time Altitude Azimuth
Cosmos 1908 3.7 21:15:22 10° N 21:19:09 45° E 21:22:54 10° SSE
Cosmos 2058 4.5 21:17:02 10° SE 21:19:52 18° E 21:22:42 10° NE
Cosmos 1151 Rocket 3.4 21:18:55 10° N 21:23:05 46° E 21:27:14 10° SSE
Cosmos 2292 4.3 21:21:44 10° N 21:24:45 84° W 21:28:05 10° S
Cosmos 2266 Rocket 4.2 21:18:55 10° S 21:25:04 57° E 21:31:07 10° NNE
Cosmos 1674 2.9 21:23:22 10° S 21:27:05 53° E 21:30:52 10° NNE
Cosmos 371 Rocket 4.4 21:22:33 10° NNW 21:27:07 44° WSW 21:31:39 10° S
Cosmos 405 3.3 21:24:04 10° N 21:27:38 51° ENE 21:31:09 10° SSE
ALOS 3.7 21:24:49 10° SSW 21:29:08 38° W 21:33:31 10° NNW
Cosmos 1553 Rocket 4.3 21:22:52 10° N 21:29:16 76° W 21:35:32 10° S
H-2A R/B 4.2 21:29:35 10° E 21:31:47 13° ENE 21:33:58 10° NE
Cosmos 1680 Rocket 3.8 21:28:45 10° N 21:33:55 56° ENE 21:39:05 10° SSE
H-2A R/B 4.4 21:33:33 10° S 21:36:42 18° SE 21:43:53 10° E
Cosmos 923 Rocket 4.0 21:33:17 10° NNW 21:38:32 81° ENE 21:43:43 10° SSE
Cosmos 1300 4.1 21:36:59 10° NNE 21:40:08 23° ENE 21:42:49 12° SE
Cosmos 1833 4.3 21:34:36 10° SSW 21:40:20 88° WNW 21:46:02 10° NNE
USA 229 DEB 4.1 21:33:51 10° SW 21:40:45 71° NW 21:47:47 10° NNE
USA 229 4.1 21:33:57 10° SW 21:40:51 72° NW 21:47:53 10° NNE
YAOGAN 6 3.8 21:38:16 11° SE 21:41:08 27° ENE 21:44:14 10° NNE
Tiangong 1 1.8 21:38:30 10° SW 21:41:17 30° SSE 21:44:04 10° E
SPOT 1/Viking Rocket 4.5 21:39:09 11° SE 21:43:34 33° ENE 21:48:10 10° N
Cosmos 2333 Rocket 4.1 21:40:35 10° N 21:44:28 18° NE 21:48:21 10° E
Cosmos 1898 Rocket 4.4 21:42:23 10° SSE 21:46:43 28° E 21:51:04 10° NE
Cosmos 1939 Rocket 3.0 21:46:22 10° S 21:50:18 70° WSW 21:54:13 10° NNW
H-2A R/B 2.5 21:46:11 10° S 21:50:42 70° WSW 21:55:13 10° NNW
ATLAS CENTAUR R/B 4.4 21:50:13 10° W 21:50:48 10° WSW 21:51:23 10° WSW
Cosmos 773 Rocket 4.5 21:46:02 10° NNW 21:51:10 61° WSW 21:56:18 10° S
Cosmos 1707 Rocket 4.3 21:48:37 10° N 21:52:39 36° ENE 21:55:47 15° SE
Cosmos 1437 Rocket 3.6 21:49:19 10° NNW 21:53:01 48° W 21:56:43 10° S
Cosmos 1666 Rocket 4.3 21:52:49 13° SSE 21:56:13 34° E 22:00:14 10° NNE
COSMOS 2428 3.1 21:51:17 10° NNW 21:56:50 51° ENE 22:01:17 16° SE
MetOp-A 4.2 21:51:55 11° SSE 21:56:56 66° ENE 22:02:15 10° N
SPOT 5 2.8 21:53:21 11° SSE 21:57:47 82° ENE 22:02:38 10° NNW
Cosmos 2297 Rocket 4.0 21:57:44 11° ESE 21:58:40 11° E 22:00:15 10° E
NOSS 3-1 (A) 3.7 21:54:51 10° S 22:00:21 44° ESE 22:06:22 10° NE
PSLV R/B 3.1 22:00:36 16° SSE 22:02:59 89° ENE 22:06:03 10° NNW
ARGOS 3.7 21:59:31 15° SE 22:03:37 44° ENE 22:08:43 10° N
Cosmos 2219 Rocket 3.3 22:00:03 10° N 22:04:58 31° ENE 22:08:52 15° ESE
Cosmos 304 Rocket 4.0 22:00:20 10° NNW 22:05:07 69° WSW 22:09:26 13° S
Nadezhda 2 Rocket 4.4 22:03:28 10° S 22:09:37 85° E 22:15:45 10° N
Cosmos 2237 4.2 22:12:42 10° NNW 22:18:28 81° ENE 22:22:30 20° SSE
Cosmos 1437 4.2 22:16:29 10° SSW 22:19:35 38° WNW 22:22:42 10° N
Cosmos 1328 4.4 22:16:39 10° SSW 22:20:32 56° W 22:24:27 10° N
Cosmos 1726 2.3 22:17:47 10° N 22:21:32 58° E 22:23:25 27° SSE
ATLAS 2AS CENTAUR R/B 3.7 22:18:20 16° SSE 22:22:53 30° ESE 22:29:28 10° NE
Envisat 4.0 22:20:05 10° S 22:24:53 42° W 22:29:43 10° NNW
CZ-4C R/B 4.0 22:24:04 25° ESE 22:25:15 32° ENE 22:28:23 10° N
USA 32 4.4 22:21:06 10° N 22:26:12 49° E 22:29:09 24° SE
Cosmos 292 Rocket 4.2 22:23:44 10° N 22:28:21 49° ENE 22:30:47 25° SE
Cosmos 2219 3.6 22:23:23 10° SSW 22:29:06 67° WNW 22:34:51 10° NNE
Landsat 7 4.4 22:27:03 24° SE 22:29:32 44° ENE 22:34:02 10° N
ERBS 4.2 22:32:03 18° E 22:32:03 18° E 22:33:18 10° ENE
Delta 2 Rocket 3.4 22:28:11 10° WSW 22:31:27 36° S 22:31:53 34° SSE
Cosmos 2237 Rocket 3.1 22:31:20 10° N 22:36:36 36° ENE 22:39:42 21° ESE
Cosmos 2333 4.2 22:31:04 10° NNW 22:36:50 85° ENE 22:40:15 26° SSE
ATLAS 3B R/B 4.1 22:32:36 10° NNW 22:38:37 29° NE 22:44:01 11° E
Cosmos 1271 Rocket 2.8 22:34:55 10° N 22:38:44 59° E 22:40:05 36° SE
SL-23 DEB 4.2 22:34:51 10° WNW 22:39:23 49° SW 22:40:31 34° S
Meteor 2-10 4.4 22:34:25 10° N 22:40:04 57° ENE 22:43:05 27° SE
Cosmos 2082 4.2 22:38:00 25° SSE 22:40:36 39° ESE 22:45:51 10° NE
Cosmos 1703 3.2 22:41:15 34° SSE 22:42:45 62° E 22:46:37 10° NNE
SL-14 R/B 3.5 22:40:06 17° SSW 22:43:00 68° W 22:47:00 10° N
Meteor 1-4 Rocket 2.5 22:40:31 10° N 22:44:17 77° E 22:45:29 41° SSE
Cosmos 1346 4.3 22:45:04 28° ENE 22:45:04 28° ENE 22:47:18 10° NNE
Cosmos 2242 Rocket 3.5 22:40:09 10° N 22:44:39 80° E 22:46:44 32° SSE
Terra 2.4 22:43:25 29° ESE 22:45:23 44° ENE 22:49:54 10° N
Cosmos 1937 Rocket 3.4 22:41:23 17° S 22:45:24 70° ESE 22:50:35 10° NNE
NOSS 3-1 (C) 3.8 22:41:05 10° SW 22:46:55 68° NW 22:53:26 10° NNE
Cosmos 2298 Rocket 4.3 22:41:47 10° SSW 22:47:04 70° WNW 22:52:24 10° NNE
Cosmos 2360 Rocket 3.7 22:43:02 10° NW 22:47:49 29° WSW 22:52:21 11° SSW
Iridium 2 3.7 22:47:14 40° SSE 22:48:23 63° E 22:52:12 10° N
NOAA 11 4.3 22:47:19 24° S 22:50:40 76° WSW 22:56:10 10° NNW
Lacrosse 4 Rocket 3.8 22:48:23 10° N 22:51:08 16° NE 22:53:24 12° E
Cosmos 1862 Rocket 4.1 22:47:18 10° N 22:51:26 41° ENE 22:52:33 34° ESE
Sich 1 3.4 22:48:46 17° SSW 22:52:06 63° W 22:56:29 10° N
CARTOSAT-1 3.9 22:51:08 36° SE 22:52:33 52° ENE 22:56:46 10° N
USA 245 3.8 22:53:37 26° WSW 22:53:56 27° W 22:56:01 10° NW
FALCON 9 R/B 4.1 22:25:36 10° WSW 22:54:37 66° S 23:00:30 18° ESE
Cosmos 1633 Rocket 3.5 22:52:39 18° SSW 22:55:47 61° W 23:00:07 10° N
Cosmos 990 Rocket 3.9 22:53:44 29° S 22:56:18 62° ESE 23:01:23 10° NNE
DELTA 2 R/B (1) 4.5 22:51:49 10° W 22:56:41 32° SSW 22:58:07 28° S
DELTA 2 DEB (DPAF) 4.1 22:58:33 36° S 23:00:22 83° WSW 23:04:53 10° NNW
Cosmos 1626 2.3 23:01:03 49° ESE 23:01:22 51° E 23:05:01 10° NNE
OAO 2 Rocket 3.8 22:57:22 10° WSW 23:02:22 42° S 23:03:20 38° SE
COSMOS 2455 3.9 23:01:37 10° NNW 23:07:05 35° NE 23:10:13 22° E
SL-08 RB Rocket 4.3 23:06:50 28° SSW 23:08:51 50° W 23:13:13 10° NNW
H-2A R/B 2.1 23:08:02 36° SSE 23:10:20 88° ENE 23:15:48 10° NNW
Cosmos 2227 Rocket 2.1 23:11:30 26° SSW 23:14:46 79° ESE 23:20:27 10° NNE
Tiangong 1 1.6 23:14:40 10° W 23:17:12 54° WNW 23:17:12 54° WNW
Cosmos 1933 4.3 23:15:07 10° NNE 23:18:48 32° ENE 23:18:58 32° E
Cosmos 1241 Rocket 4.4 23:22:15 12° SSW 23:27:58 83° WNW 23:34:17 10° NNE
Cosmos 2333 Rocket 2.2 23:23:37 10° NNW 23:29:23 75° WSW 23:31:18 43° S
Cosmos 192 4.3 23:24:49 10° NNW 23:29:45 79° ENE 23:30:50 55° SE
IGS 5A 3.6 23:29:10 55° SSW 23:29:53 67° WSW 23:34:03 10° NNW
SL-16 R/B 2.9 23:24:39 10° N 23:30:05 44° ENE 23:32:01 33° ESE
SeaSat 1 3.8 23:29:32 24° E 23:31:20 30° NE 23:35:36 10° N
Cosmos 1125 Rocket 3.6 23:33:30 50° SE 23:34:25 58° ESE 23:39:38 10° NNE
Cosmos 1455 2.7 23:34:50 10° NNW 23:38:31 50° W 23:38:49 49° WSW
Nadezhda 1 Rocket 4.3 23:33:35 10° NNW 23:39:32 57° W 23:42:17 32° SSW
SAR-Lupe-2 4.2 23:40:40 47° W 23:40:40 47° W 23:44:07 10° NNW
COSMOS 2428 4.5 23:36:25 10° NW 23:40:40 22° W 23:43:18 16° SW
Cosmos 2297 Rocket 2.1 23:39:28 37° SSW 23:41:49 90° WNW 23:47:30 10° NNE
Okean 1-7 3.8 23:41:32 10° N 23:45:28 37° ENE 23:45:28 37° ENE
Cosmos 2219 Rocket 3.1 23:43:50 10° NW 23:48:57 38° WSW 23:50:35 31° SW
Cosmos 1703 Rocket 3.4 23:48:07 10° N 23:52:29 76° E 23:52:36 75° E
Cosmos 1869 4.2 23:52:10 10° NNW 23:55:58 40° W 23:56:15 39° WSW
